Location: Jefferson
(30.9666°N, 81.7901°W)
Time: 19:30:50
(UTC+00:00)

ACS3 Solar Sail - Pass Details

Date: 28 September 2024
Orbit: 960 x 1036 km, 97.4° (Epoch: 09 October)

Event Time Altitude Azimuth Distance (km) Brightness Sun altitude
Exits shadow 02:15:55 44° 299° (WNW) 1,399 2.8 -38.3°
Drops below altitude 10° 02:20:46 10° 337° (NNW) 2,838 4.7 -39.3°
Sets 02:23:22 0° 342° (NNW) 3,789 5.4 -39.8°
